OBJECT D

Last updated on Thu Jun 09 2022 01:02:05 GMT+0100 (British Summer Time)

1 52800U 22060D 22159.64835821 .08579681 72702-5 28536-2 0 9994 2 52800 41.3762 270.3417 0116427 139.3137 314.9335 16.09928926 563

Satellite not in orbit